Time,TemperatureF,DewpointF,PressureIn,WindDirection,WindDirectionDegrees,WindSpeedMPH,WindSpeedGustMPH,Humidity,HourlyPrecipIn,Conditions,Clouds,dailyrainin,SolarRadiationWatts/m^2,SoftwareType,DateUTC
2013-02-19 00:01:00,14.0,2.0,-100.00,SSW,210,3.0,5.0,58,0.00,,,0.00,0.000000,,2013-02-19 07:01:00,
2013-02-19 00:11:00,14.0,2.0,-100.00,SSW,210,3.0,5.0,58,0.00,,,0.00,0.000000,,2013-02-19 07:11:00,
2013-02-19 00:42:00,12.0,1.0,-100.00,WNW,284,1.0,5.0,61,0.00,,,0.00,0.000000,,2013-02-19 07:42:00,
2013-02-19 00:52:00,12.0,1.0,-100.00,WNW,284,1.0,5.0,61,0.00,,,0.00,0.000000,,2013-02-19 07:52:00,
2013-02-19 01:02:00,12.0,1.0,-100.00,WNW,284,1.0,5.0,61,0.00,,,0.00,0.000000,,2013-02-19 08:02:00,
2013-02-19 01:42:00,10.0,0.0,-100.00,WSW,248,2.0,5.0,63,-99.99,,,0.00,0.000000,,2013-02-19 08:42:00,
2013-02-19 01:52:00,10.0,0.0,-100.00,WSW,248,2.0,5.0,63,-99.99,,,0.00,0.000000,,2013-02-19 08:52:00,
2013-02-19 02:02:00,10.0,0.0,-100.00,WSW,248,2.0,5.0,63,-99.99,,,0.00,0.000000,,2013-02-19 09:02:00,
2013-02-19 02:11:00,10.0,0.0,-100.00,WSW,248,2.0,5.0,63,-99.99,,,0.00,0.000000,,2013-02-19 09:11:00,
2013-02-19 02:32:00,10.0,0.0,-100.00,WNW,295,3.0,4.0,62,0.00,,,0.00,0.000000,,2013-02-19 09:32:00,
2013-02-19 02:42:00,10.0,0.0,-100.00,WNW,295,3.0,4.0,62,0.00,,,0.00,0.000000,,2013-02-19 09:42:00,
2013-02-19 02:53:00,10.0,0.0,-100.00,WNW,295,3.0,4.0,62,0.00,,,0.00,0.000000,,2013-02-19 09:53:00,
2013-02-19 03:02:00,10.0,0.0,-100.00,WNW,295,3.0,4.0,62,0.00,,,0.00,0.000000,,2013-02-19 10:02:00,
2013-02-19 03:32:00,9.0,-1.0,-100.00,WSW,257,1.0,4.0,64,-99.99,,,0.00,0.000000,,2013-02-19 10:32:00,
2013-02-19 03:42:00,9.0,-1.0,-100.00,WSW,257,1.0,4.0,64,-99.99,,,0.00,0.000000,,2013-02-19 10:42:00,
2013-02-19 03:52:00,9.0,-1.0,-100.00,WSW,257,1.0,4.0,64,-99.99,,,0.00,0.000000,,2013-02-19 10:52:00,
2013-02-19 04:01:00,9.0,-1.0,-100.00,WSW,257,1.0,4.0,64,-99.99,,,0.00,0.000000,,2013-02-19 11:01:00,
2013-02-19 04:11:00,9.0,-1.0,-100.00,WSW,257,1.0,4.0,64,-99.99,,,0.00,0.000000,,2013-02-19 11:11:00,
2013-02-19 04:42:00,9.0,1.0,-100.00,ENE,73,0.0,2.0,68,0.00,,,0.00,0.000000,,2013-02-19 11:42:00,
2013-02-19 04:52:00,9.0,1.0,-100.00,ENE,73,0.0,2.0,68,0.00,,,0.00,0.000000,,2013-02-19 11:52:00,
2013-02-19 05:12:00,9.0,1.0,-100.00,ENE,73,0.0,2.0,68,0.00,,,0.00,0.000000,,2013-02-19 12:12:00,
2013-02-19 05:32:00,7.0,-1.0,-100.00,NW,313,1.0,3.0,69,-99.99,,,-99.99,0.000000,,2013-02-19 12:32:00,
2013-02-19 05:42:00,7.0,-1.0,-100.00,NW,313,1.0,3.0,69,-99.99,,,-99.99,0.000000,,2013-02-19 12:42:00,
2013-02-19 05:52:00,7.0,-1.0,-100.00,NW,313,1.0,3.0,69,-99.99,,,-99.99,0.000000,,2013-02-19 12:52:00,
2013-02-19 06:32:00,6.0,-1.0,-100.00,NNW,347,1.0,3.0,73,-99.99,,,0.00,0.000000,,2013-02-19 13:32:00,
2013-02-19 06:42:00,6.0,-1.0,-100.00,NNW,347,1.0,3.0,73,-99.99,,,0.00,0.000000,,2013-02-19 13:42:00,
2013-02-19 06:52:00,6.0,-1.0,-100.00,NNW,347,1.0,3.0,73,-99.99,,,0.00,0.000000,,2013-02-19 13:52:00,
2013-02-19 07:01:00,6.0,-1.0,-100.00,NNW,347,1.0,3.0,73,-99.99,,,0.00,0.000000,,2013-02-19 14:01:00,
2013-02-19 07:11:00,6.0,-1.0,-100.00,NNW,347,1.0,3.0,73,-99.99,,,0.00,0.000000,,2013-02-19 14:11:00,
2013-02-19 07:33:00,5.0,-2.0,-100.00,South,175,0.0,3.0,72,0.00,,,0.00,4.000000,,2013-02-19 14:33:00,
2013-02-19 08:01:00,5.0,-2.0,-100.00,South,175,0.0,3.0,72,0.00,,,0.00,4.000000,,2013-02-19 15:01:00,
2013-02-19 08:11:00,5.0,-2.0,-100.00,South,175,0.0,3.0,72,0.00,,,0.00,4.000000,,2013-02-19 15:11:00,
2013-02-19 08:42:00,14.0,1.0,-100.00,NW,324,0.0,2.0,56,0.00,,,0.00,151.000000,,2013-02-19 15:42:00,
2013-02-19 08:52:00,14.0,1.0,-100.00,NW,324,0.0,2.0,56,0.00,,,0.00,151.000000,,2013-02-19 15:52:00,
2013-02-19 09:42:00,17.0,2.0,-100.00,North,356,2.0,4.0,51,-99.99,,,0.00,358.000000,,2013-02-19 16:42:00,
2013-02-19 09:52:00,17.0,2.0,-100.00,North,356,2.0,4.0,51,-99.99,,,0.00,358.000000,,2013-02-19 16:52:00,
2013-02-19 10:42:00,23.0,2.0,-100.00,NNW,339,3.0,6.0,39,-99.99,,,0.00,554.000000,,2013-02-19 17:42:00,
2013-02-19 10:52:00,23.0,2.0,-100.00,NNW,339,3.0,6.0,39,-99.99,,,0.00,554.000000,,2013-02-19 17:52:00,
2013-02-19 11:42:00,27.0,2.0,-100.00,North,7,3.0,6.0,33,-99.99,,,0.00,735.000000,,2013-02-19 18:42:00,
2013-02-19 11:52:00,27.0,2.0,-100.00,North,7,3.0,6.0,33,-99.99,,,0.00,735.000000,,2013-02-19 18:52:00,
2013-02-19 12:32:00,34.0,5.0,-100.00,WNW,297,1.0,7.0,29,0.00,,,0.00,795.000000,,2013-02-19 19:32:00,
2013-02-19 13:12:00,34.0,5.0,-100.00,WNW,297,1.0,7.0,29,0.00,,,0.00,795.000000,,2013-02-19 20:12:00,
2013-02-19 13:42:00,36.0,4.0,-100.00,NNW,348,3.0,8.0,26,0.00,,,-99.99,841.000000,,2013-02-19 20:42:00,
2013-02-19 13:52:00,36.0,4.0,-100.00,NNW,348,3.0,8.0,26,0.00,,,-99.99,841.000000,,2013-02-19 20:52:00,
2013-02-19 14:02:00,36.0,4.0,-100.00,NNW,348,3.0,8.0,26,0.00,,,-99.99,841.000000,,2013-02-19 21:02:00,
2013-02-19 14:11:00,36.0,4.0,-100.00,NNW,348,3.0,8.0,26,0.00,,,-99.99,841.000000,,2013-02-19 21:11:00,
2013-02-19 14:42:00,38.0,4.0,-100.00,NNW,340,2.0,7.0,24,0.00,,,0.00,688.000000,,2013-02-19 21:42:00,
2013-02-19 14:52:00,38.0,4.0,-100.00,NNW,340,2.0,7.0,24,0.00,,,0.00,688.000000,,2013-02-19 21:52:00,
2013-02-19 15:02:00,38.0,4.0,-100.00,NNW,340,2.0,7.0,24,0.00,,,0.00,688.000000,,2013-02-19 22:02:00,
2013-02-19 15:11:00,38.0,4.0,-100.00,NNW,340,2.0,7.0,24,0.00,,,0.00,688.000000,,2013-02-19 22:11:00,
2013-02-19 15:42:00,41.0,7.0,-100.00,SSE,165,3.0,7.0,24,0.00,,,-99.99,660.000000,,2013-02-19 22:42:00,
2013-02-19 15:52:00,41.0,7.0,-100.00,SSE,165,3.0,7.0,24,0.00,,,-99.99,660.000000,,2013-02-19 22:52:00,
2013-02-19 16:01:00,41.0,7.0,-100.00,SSE,165,3.0,7.0,24,0.00,,,-99.99,660.000000,,2013-02-19 23:01:00,
2013-02-19 16:11:00,41.0,7.0,-100.00,SSE,165,3.0,7.0,24,0.00,,,-99.99,660.000000,,2013-02-19 23:11:00,
2013-02-19 16:32:00,34.0,7.0,-100.00,SSE,163,3.0,7.0,31,0.00,,,0.00,312.000000,,2013-02-19 23:32:00,
2013-02-19 16:42:00,34.0,7.0,-100.00,SSE,163,3.0,7.0,31,0.00,,,0.00,312.000000,,2013-02-19 23:42:00,
2013-02-19 16:52:00,34.0,7.0,-100.00,SSE,163,3.0,7.0,31,0.00,,,0.00,312.000000,,2013-02-19 23:52:00,
2013-02-19 17:01:00,34.0,7.0,-100.00,SSE,163,3.0,7.0,31,0.00,,,0.00,312.000000,,2013-02-20 00:01:00,
2013-02-19 17:11:00,34.0,7.0,-100.00,SSE,163,3.0,7.0,31,0.00,,,0.00,312.000000,,2013-02-20 00:11:00,
2013-02-19 17:42:00,31.0,5.0,-100.00,WSW,256,0.0,4.0,32,0.00,,,0.00,95.000000,,2013-02-20 00:42:00,
2013-02-19 17:52:00,31.0,5.0,-100.00,WSW,256,0.0,4.0,32,0.00,,,0.00,95.000000,,2013-02-20 00:52:00,
2013-02-19 18:02:00,31.0,5.0,-100.00,WSW,256,0.0,4.0,32,0.00,,,0.00,95.000000,,2013-02-20 01:02:00,
2013-02-19 18:11:00,31.0,5.0,-100.00,WSW,256,0.0,4.0,32,0.00,,,0.00,95.000000,,2013-02-20 01:11:00,
2013-02-19 18:32:00,28.0,3.0,-100.00,SSE,155,1.0,4.0,34,0.00,,,0.00,10.000000,,2013-02-20 01:32:00,
2013-02-19 18:42:00,28.0,3.0,-100.00,SSE,155,1.0,4.0,34,0.00,,,0.00,10.000000,,2013-02-20 01:42:00,
2013-02-19 18:52:00,28.0,3.0,-100.00,SSE,155,1.0,4.0,34,0.00,,,0.00,10.000000,,2013-02-20 01:52:00,
2013-02-19 19:01:00,28.0,3.0,-100.00,SSE,155,1.0,4.0,34,0.00,,,0.00,10.000000,,2013-02-20 02:01:00,
2013-02-19 19:11:00,28.0,3.0,-100.00,SSE,155,1.0,4.0,34,0.00,,,0.00,10.000000,,2013-02-20 02:11:00,
2013-02-19 19:42:00,27.0,6.0,-100.00,East,82,1.0,4.0,40,0.00,,,0.00,0.000000,,2013-02-20 02:42:00,
2013-02-19 19:52:00,27.0,6.0,-100.00,East,82,1.0,4.0,40,0.00,,,0.00,0.000000,,2013-02-20 02:52:00,
2013-02-19 20:02:00,27.0,6.0,-100.00,East,82,1.0,4.0,40,0.00,,,0.00,0.000000,,2013-02-20 03:02:00,
2013-02-19 20:12:00,27.0,6.0,-100.00,East,82,1.0,4.0,40,0.00,,,0.00,0.000000,,2013-02-20 03:12:00,
2013-02-19 20:32:00,26.0,6.0,-100.00,North,350,3.0,5.0,42,0.00,,,0.00,0.000000,,2013-02-20 03:32:00,
2013-02-19 20:42:00,26.0,6.0,-100.00,North,350,3.0,5.0,42,0.00,,,0.00,0.000000,,2013-02-20 03:42:00,
2013-02-19 20:52:00,26.0,6.0,-100.00,North,350,3.0,5.0,42,0.00,,,0.00,0.000000,,2013-02-20 03:52:00,
2013-02-19 21:01:00,26.0,6.0,-100.00,North,350,3.0,5.0,42,0.00,,,0.00,0.000000,,2013-02-20 04:01:00,
2013-02-19 21:11:00,26.0,6.0,-100.00,North,350,3.0,5.0,42,0.00,,,0.00,0.000000,,2013-02-20 04:11:00,
2013-02-19 21:42:00,25.0,6.0,-100.00,NNW,343,4.0,6.0,44,0.00,,,0.00,0.000000,,2013-02-20 04:42:00,
2013-02-19 21:52:00,25.0,6.0,-100.00,NNW,343,4.0,6.0,44,0.00,,,0.00,0.000000,,2013-02-20 04:52:00,
2013-02-19 22:02:00,25.0,6.0,-100.00,NNW,343,4.0,6.0,44,0.00,,,0.00,0.000000,,2013-02-20 05:02:00,
2013-02-19 22:12:00,25.0,6.0,-100.00,NNW,343,4.0,6.0,44,0.00,,,0.00,0.000000,,2013-02-20 05:12:00,
2013-02-19 22:43:00,23.0,6.0,-100.00,North,355,0.0,5.0,48,0.00,,,0.00,0.000000,,2013-02-20 05:43:00,
2013-02-19 22:52:00,23.0,6.0,-100.00,North,355,0.0,5.0,48,0.00,,,0.00,0.000000,,2013-02-20 05:52:00,
2013-02-19 23:01:00,23.0,6.0,-100.00,North,355,0.0,5.0,48,0.00,,,0.00,0.000000,,2013-02-20 06:01:00,
2013-02-19 23:11:00,23.0,6.0,-100.00,North,355,0.0,5.0,48,0.00,,,0.00,0.000000,,2013-02-20 06:11:00,
2013-02-19 23:42:00,21.0,7.0,-100.00,NW,307,0.0,2.0,53,0.00,,,0.00,0.000000,,2013-02-20 06:42:00,
2013-02-19 23:52:00,21.0,7.0,-100.00,NW,307,0.0,2.0,53,0.00,,,0.00,0.000000,,2013-02-20 06:52:00,